Wind_Speed
5 5 4 4 4 4 4 4 4 3 3 3 3 3 3 4 5 5 5 6 7 7 8 10 11 11 10 11 11 11 11 11 11 10 10 10 10 9 9 9 8 8 7
5 4 4 4 3 3 3 3 3 2 1 1 2 3 3 4 5 5 5 5 6 7 7 9 11 11 11 11 11 11 12 12 12 12 12 12 12 12 11 10 10 10 9
5 4 3 3 2 2 2 2 1 1 1 1 1 1 2 3 4 4 5 5 5 6 7 8 9 11 11 11 11 11 12 12 13 13 13 13 13 13 13 12 12 11 11
5 4 3 2 2 1 1 1 1 1 1 1 1 1 1 2 3 3 4 4 5 6 6 7 8 10 10 11 11 11 12 13 13 14 14 15 15 15 15 14 14 14 13
6 5 4 3 2 1 1 1 2 2 2 2 2 2 1 1 1 2 2 3 4 5 6 7 8 9 10 10 11 12 12 12 13 13 13 14 15 16 16 16 16 15 15
7 6 5 4 3 2 1 2 2 3 3 3 3 2 2 2 1 0 1 2 3 3 4 5 7 7 8 9 10 11 12 12 13 13 13 14 14 15 16 17 16 16 16
8 7 6 5 4 3 2 2 2 3 3 3 3 3 3 3 2 1 1 1 2 2 3 3 4 5 7 8 8 9 10 11 12 13 13 13 14 14 15 17 18 18 17
9 8 7 6 5 4 3 2 2 3 3 3 3 3 3 4 3 3 2 1 1 1 1 2 3 4 5 6 7 8 8 9 10 12 13 13 14 15 15 16 17 18 19
10 9 8 7 6 5 4 3 2 2 2 3 3 3 3 3 3 3 2 2 1 0 1 2 3 3 4 5 6 7 7 8 9 10 11 13 14 15 15 16 17 18 20
11 10 9 8 7 6 5 4 3 2 2 2 2 2 2 1 1 1 1 2 2 2 2 2 3 4 4 5 6 6 7 8 8 9 11 12 13 13 14 15 16 17 19
12 12 11 10 9 8 7 6 5 4 3 3 2 1 1 1 1 1 2 2 2 3 3 3 3 4 5 5 6 7 8 8 8 9 10 11 13 14 15 16 17 18 19
14 13 12 11 10 9 9 8 7 6 6 5 5 4 4 4 4 4 4 4 4 4 5 5 5 6 7 7 7 8 9 9 10 11 11 12 13 14 15 16 17 18 19
15 14 14 13 12 11 11 10 10 9 9 9 8 8 8 7 7 7 7 7 7 7 8 8 8 8 9 10 10 10 10 11 11 12 12 13 13 15 15 16 17 18 19
16 16 15 15 14 14 14 13 13 12 12 11 11 11 11 11 11 10 11 11 11 11 11 11 11 11 11 12 13 13 14 14 14 14 14 15 15 16 17 17 18 19 20
18 17 17 17 17 17 17 16 16 16 15 15 15 15 15 14 14 14 14 14 14 14 14 14 14 15 15 15 15 16 16 17 18 18 18 18 18 19 19 19 20 21 22
19 19 19 19 19 19 19 20 20 19 19 19 19 19 18 18 18 18 18 18 18 18 18 18 18 18 19 18 19 19 19 20 20 21 21 21 22 22 22 22 22 23 23
21 21 21 21 21 22 22 23 23 23 23 23 23 23 22 22 22 22 22 22 22 21 22 22 22 22 22 22 22 23 23 23 23 24 24 24 25 25 25 25 25 25 26
22 23 23 23 24 25 25 26 26 26 26 27 27 27 27 26 26 26 26 26 25 25 25 25 26 26 26 26 26 26 26 27 27 27 27 27 28 28 28 29 29 29 29
24 25 26 26 27 28 28 28 29 29 29 30 30 30 30 30 30 30 29 29 29 29 28 29 29 29 29 29 29 30 30 30 30 30 30 31 31 31 31 32 32 32 32
26 27 28 29 30 31 31 32 32 32 32 32 33 33 34 34 33 33 33 33 33 32 32 32 31 32 32 33 33 33 33 33 33 34 34 34 34 35 35 35 36 35 36
27 28 29 31 32 33 34 34 34 35 36 36 36 37 37 37 37 37 36 36 36 35 35 35 35 35 36 36 37 36 36 36 36 37 37 37 38 38 38 39 39 39 39
25 27 28 30 33 34 35 36 37 37 38 38 39 39 39 39 39 40 40 39 39 38 39 39 39 39 39 40 41 40 40 39 39 40 41 41 42 41 42 42 43 43 42
25 28 30 30 31 33 35 36 38 39 40 40 40 40 40 40 40 41 42 42 42 42 42 42 42 42 42 43 43 43 44 44 42 43 44 43 45 45 46 46 46 47 46
28 29 30 31 32 34 36 36 37 39 41 41 41 41 42 42 43 43 43 43 44 44 44 44 44 44 44 45 46 47 47 47 46 46 48 46 46 48 49 49 50 50 50
29 31 32 33 34 35 36 37 38 39 40 41 42 42 42 43 44 44 45 44 45 45 46 47 47 47 47 48 49 49 50 50 49 48 50 51 50 51 52 52 52 53 53
30 31 33 33 33 34 34 35 38 39 40 41 42 42 43 44 44 45 45 46 46 47 48 49 50 50 50 51 51 52 53 54 54 54 53 55 55 56 55 53 54 56 56
Wind_Direction
268 279 286 295 303 306 309 309 306 301 291 276 269 267 263 251 243 240 236 229 228 228 224 221 219 221 223 224 225 226 224 225 224 226 227 226 225 225 226 229 231 231 233
259 271 280 293 302 308 317 323 321 319 312 281 261 261 261 249 237 235 236 233 231 228 225 220 219 223 226 227 228 232 231 229 231 231 231 231 232 232 233 234 236 237 239
248 256 271 287 296 304 324 342 341 352 357 338 295 268 253 246 236 237 237 236 231 226 222 222 223 225 228 229 230 233 234 233 235 235 235 234 234 236 237 238 239 242 243
231 239 248 257 264 283 354 31 45 57 53 33 19 360 261 228 236 243 249 243 234 230 227 228 228 225 228 232 235 237 238 237 238 239 240 239 237 238 239 240 242 245 246
227 227 227 221 211 169 80 68 69 73 69 58 54 49 55 153 215 237 249 240 228 227 230 233 230 228 231 236 240 241 240 239 240 241 242 242 240 240 242 242 243 245 248
217 215 213 204 190 162 127 94 86 81 81 80 73 64 63 75 105 162 217 217 216 222 231 235 233 234 237 239 243 246 246 244 243 243 244 245 245 245 245 244 245 247 249
209 208 202 191 181 170 156 128 109 97 90 82 80 76 78 82 85 89 131 170 193 212 225 226 226 234 239 244 250 254 253 250 247 245 245 246 247 248 249 247 247 248 250
207 204 197 191 185 178 173 156 138 113 102 94 84 78 85 84 83 80 88 104 150 208 227 232 233 239 245 251 256 260 262 257 251 247 247 250 250 251 251 251 250 250 251
205 202 197 194 193 187 183 177 166 150 128 108 93 84 80 79 75 70 65 59 40 310 276 265 254 252 254 258 260 261 264 263 259 255 253 255 255 253 255 255 253 253 253
208 208 204 203 206 205 206 209 208 194 175 152 119 95 84 65 45 29 11 1 343 330 311 285 275 266 266 266 265 265 268 269 267 262 260 259 255 255 257 256 255 256 255
214 214 211 212 216 218 221 224 224 219 215 219 225 241 270 285 297 303 305 313 311 305 297 291 285 278 276 273 272 271 270 269 271 272 268 264 260 260 260 260 260 258 257
217 218 218 220 224 227 229 230 231 231 237 246 254 263 274 281 282 281 282 286 289 288 285 284 283 281 279 278 277 276 274 272 273 274 275 273 269 267 265 264 264 262 261
221 223 225 227 231 234 235 237 239 242 247 254 259 265 272 277 280 280 279 279 281 283 281 281 280 278 278 277 276 276 276 275 276 276 275 275 273 272 270 267 266 267 266
228 230 232 235 238 240 241 243 245 248 251 256 262 267 271 275 277 279 280 280 280 281 281 280 279 279 279 277 276 275 274 274 274 274 275 275 274 274 273 271 269 269 269
234 236 239 242 245 247 248 249 251 253 256 260 264 268 270 273 275 276 277 278 279 279 278 279 278 277 277 277 276 276 275 274 273 273 273 273 273 273 273 273 272 271 270
239 241 244 247 250 252 253 255 256 258 261 263 266 268 270 271 273 274 275 275 276 276 276 276 276 275 274 275 275 275 274 274 273 273 273 273 273 273 273 273 272 272 271
243 245 248 250 253 256 257 258 260 262 264 266 268 269 271 272 272 273 274 274 275 275 275 274 274 274 273 274 274 275 274 273 273 273 272 272 273 273 273 273 273 272 272
248 251 251 253 256 258 259 261 262 264 266 268 269 270 272 273 273 273 274 274 274 274 274 273 273 273 273 273 273 274 274 273 272 272 272 271 272 272 272 272 272 272 272
252 254 256 257 259 260 261 263 264 266 268 269 270 271 272 272 273 273 274 274 274 274 274 274 273 273 273 273 273 274 274 273 273 272 272 271 271 271 271 271 271 271 271
258 259 261 261 262 263 263 265 265 267 268 269 270 272 272 272 273 273 273 274 274 274 275 274 274 274 274 273 273 273 274 274 273 272 271 271 270 270 270 270 271 271 271
262 263 264 264 265 266 266 266 268 269 270 270 271 271 272 272 272 272 273 274 274 274 274 274 274 275 275 274 275 274 274 273 273 273 272 272 271 271 270 270 270 271 271
265 264 265 269 269 267 268 269 269 269 270 271 272 272 272 273 273 272 272 272 273 273 274 274 274 274 274 274 275 275 274 273 272 272 273 273 272 272 271 271 271 271 271
269 268 269 271 272 272 272 272 271 270 270 272 271 271 271 272 272 273 273 273 272 273 274 275 275 274 274 274 274 274 274 274 273 272 271 271 272 272 272 273 273 273 273
271 271 271 272 272 272 271 271 272 272 271 272 271 271 271 272 273 273 273 273 272 273 273 274 275 275 275 275 275 275 274 274 274 274 273 272 271 271 272 273 273 273 273
273 272 271 271 273 273 272 272 273 273 272 271 272 272 272 272 273 273 273 274 274 275 276 277 276 275 275 275 275 275 275 275 274 274 275 275 273 272 271 272 273 273 273
273 273 273 274 275 276 275 275 276 274 272 272 272 273 273 271 272 273 273 274 274 275 276 277 277 276 276 276 276 276 276 276 275 275 275 275 275 274 272 272 273 273 272
Height
5872 5873 5873 5873 5874 5874 5874 5874 5874 5874 5874 5874 5874 5874 5874 5874 5874 5874 5875 5876 5876 5877 5878 5880 5882 5883 5885 5886 5887 5889 5890 5891 5892 5893 5895 5896 5897 5898 5899 5900 5900 5901 5902
5871 5872 5872 5872 5873 5873 5873 5873 5873 5873 5873 5873 5873 5873 5873 5873 5873 5874 5874 5874 5875 5876 5877 5878 5880 5881 5883 5884 5885 5887 5888 5889 5890 5891 5893 5894 5895 5896 5897 5898 5899 5900 5901
5870 5871 5872 5872 5872 5872 5872 5872 5873 5873 5873 5873 5872 5872 5872 5872 5872 5873 5873 5873 5874 5875 5876 5877 5878 5879 5881 5882 5883 5884 5885 5887 5888 5889 5890 5891 5893 5894 5895 5896 5897 5898 5899
5870 5871 5871 5871 5871 5872 5872 5872 5872 5872 5872 5872 5872 5871 5871 5871 5871 5872 5872 5872 5873 5873 5874 5875 5876 5878 5879 5880 5881 5882 5883 5884 5885 5886 5888 5889 5890 5891 5892 5894 5895 5896 5897
5869 5870 5871 5871 5871 5871 5872 5872 5872 5872 5872 5872 5872 5871 5871 5871 5871 5871 5871 5871 5872 5872 5873 5874 5875 5876 5877 5878 5878 5879 5880 5881 5882 5884 5885 5886 5887 5888 5890 5891 5892 5893 5894
5868 5869 5870 5870 5871 5871 5872 5872 5872 5872 5872 5872 5872 5872 5871 5871 5871 5871 5871 5871 5871 5872 5872 5873 5874 5874 5875 5876 5876 5877 5878 5879 5880 5881 5882 5883 5884 5885 5886 5888 5889 5890 5891
5867 5868 5869 5870 5870 5871 5872 5872 5872 5872 5872 5872 5873 5872 5872 5871 5871 5871 5871 5871 5871 5872 5872 5872 5873 5873 5874 5874 5875 5875 5875 5876 5877 5878 5879 5880 5881 5882 5883 5884 5885 5887 5888
5866 5867 5868 5869 5870 5871 5871 5872 5872 5872 5872 5872 5873 5873 5872 5873 5872 5872 5871 5871 5871 5871 5871 5872 5872 5872 5873 5873 5873 5873 5873 5874 5874 5875 5876 5877 5878 5879 5879 5880 5881 5883 5884
5865 5866 5867 5868 5870 5870 5871 5872 5872 5873 5873 5873 5873 5873 5873 5873 5872 5872 5872 5872 5871 5871 5871 5871 5871 5871 5872 5872 5872 5872 5872 5872 5872 5872 5873 5874 5874 5875 5876 5877 5878 5878 5880
5863 5865 5866 5867 5869 5870 5871 5871 5872 5872 5873 5873 5873 5873 5873 5873 5873 5873 5872 5872 5871 5871 5871 5871 5871 5870 5870 5870 5870 5870 5870 5870 5870 5870 5870 5871 5871 5872 5872 5873 5874 5874 5875
5862 5864 5865 5866 5868 5869 5870 5870 5871 5872 5872 5873 5873 5872 5873 5873 5872 5872 5872 5872 5871 5870 5870 5870 5869 5869 5869 5869 5868 5868 5868 5868 5868 5868 5868 5868 5868 5868 5869 5869 5870 5870 5871
5860 5862 5864 5865 5866 5867 5868 5869 5870 5871 5871 5872 5872 5872 5872 5872 5871 5871 5871 5870 5870 5870 5869 5868 5868 5868 5867 5867 5867 5867 5866 5866 5866 5865 5865 5865 5865 5865 5865 5865 5866 5866 5866
5858 5860 5862 5863 5865 5866 5867 5868 5868 5869 5870 5870 5870 5870 5870 5870 5870 5869 5869 5869 5868 5868 5867 5867 5866 5866 5865 5865 5864 5864 5864 5863 5863 5863 5862 5862 5862 5862 5862 5861 5862 5862 5862
5856 5858 5860 5861 5862 5863 5865 5866 5866 5867 5867 5868 5868 5868 5868 5868 5868 5867 5867 5866 5866 5865 5865 5864 5864 5863 5862 5862 5861 5861 5861 5860 5860 5859 5859 5858 5858 5858 5858 5857 5857 5857 5857
5854 5855 5857 5858 5860 5861 5862 5863 5864 5864 5864 5865 5865 5865 5865 5865 5865 5864 5864 5863 5863 5862 5862 5861 5860 5859 5859 5858 5858 5857 5856 5856 5855 5855 5855 5854 5854 5853 5853 5853 5852 5852 5852
5850 5852 5853 5855 5856 5857 5858 5859 5860 5860 5861 5861 5861 5861 5861 5861 5860 5860 5860 5859 5859 5859 5858 5857 5856 5855 5854 5853 5853 5852 5852 5851 5850 5850 5849 5849 5848 5848 5848 5847 5847 5846 5846
5846 5848 5849 5850 5851 5853 5853 5854 5855 5855 5856 5856 5856 5856 5856 5855 5855 5855 5855 5854 5854 5853 5852 5852 5851 5850 5849 5848 5847 5846 5846 5845 5844 5844 5843 5843 5842 5842 5841 5841 5841 5840 5840
5842 5843 5844 5846 5847 5847 5848 5849 5849 5850 5850 5850 5850 5850 5850 5850 5849 5849 5848 5848 5847 5847 5846 5845 5844 5844 5842 5842 5841 5840 5839 5838 5837 5837 5836 5836 5835 5835 5834 5834 5833 5833 5833
5837 5838 5839 5840 5841 5841 5842 5842 5843 5843 5843 5843 5843 5843 5843 5842 5842 5841 5841 5840 5840 5839 5839 5838 5837 5836 5835 5834 5833 5832 5832 5831 5830 5829 5828 5828 5827 5827 5826 5826 5825 5825 5824
5832 5833 5833 5834 5834 5835 5835 5835 5835 5836 5835 5835 5835 5835 5834 5834 5834 5833 5832 5832 5832 5831 5830 5829 5828 5828 5827 5825 5825 5824 5823 5822 5821 5820 5819 5818 5818 5817 5817 5816 5815 5815 5815
5826 5827 5827 5827 5827 5827 5827 5827 5827 5827 5827 5827 5826 5826 5825 5825 5824 5824 5823 5822 5822 5822 5821 5820 5819 5818 5817 5815 5815 5814 5813 5812 5811 5810 5809 5809 5808 5807 5806 5805 5804 5804 5804
5819 5820 5820 5820 5819 5819 5819 5818 5818 5818 5817 5817 5816 5815 5815 5815 5814 5813 5812 5811 5811 5811 5810 5809 5808 5808 5806 5805 5803 5802 5802 5801 5801 5800 5798 5798 5796 5795 5794 5793 5793 5792 5792
5813 5813 5812 5812 5811 5810 5809 5809 5808 5808 5807 5806 5806 5805 5804 5804 5803 5802 5801 5800 5799 5799 5798 5797 5797 5796 5794 5793 5791 5790 5789 5788 5789 5787 5785 5786 5784 5783 5782 5780 5780 5779 5779
5806 5805 5804 5803 5802 5801 5800 5799 5798 5797 5796 5796 5795 5794 5793 5792 5792 5790 5789 5788 5787 5786 5785 5784 5784 5783 5781 5780 5778 5778 5776 5775 5775 5774 5771 5772 5772 5770 5768 5767 5766 5765 5765
5798 5796 5795 5794 5793 5792 5790 5789 5787 5786 5785 5785 5784 5782 5781 5780 5779 5778 5777 5776 5775 5774 5772 5771 5770 5769 5768 5766 5765 5763 5762 5761 5761 5761 5758 5756 5756 5755 5754 5753 5752 5750 5749
5789 5788 5787 5785 5784 5783 5781 5779 5778 5776 5774 5773 5772 5771 5770 5768 5767 5766 5764 5764 5763 5761 5759 5758 5756 5755 5753 5752 5749 5748 5747 5745 5744 5745 5743 5740 5739 5737 5738 5739 5736 5734 5732